[[{"header":{"parameterUnit":"m.s-1","parameterCategory":1,"la1":30.2991,"la2":30.254,"lo1":-89.0895,"lo2":-89.0444,"dy":0.0017,"dx":0.0017,"nx":28,"ny":28,"refTime":"2025-11-07T03:00:00:Z","depth":0,"parameterNumber":2,"parameterNumberName":"U-component_of_WINDS"},"data":[0,0,0,0,0,0,0,0,0,0,0,0,0,0,0,0,0,0,0,0,0,0,0,0,0,0,0,0,0,0,0,0,0,0,0,0,0,0,0,0,0,0,0,0,0,0,0,0,0,0,0,0,0,0,0,0,0,0,-0.2086,-0.2086,0,-0.2023,-0.2022,-0.2022,-0.2027,-0.2028,-0.2029,-0.203,-0.1966,-0.1964,-0.1961,0,0,0,0,0,0,0,0,0,0,0,0,0,-0.2213,-0.221,-0.2086,-0.2086,-0.2085,-0.2023,-0.2022,-0.2021,-0.2027,-0.2028,-0.2029,-0.203,-0.1967,-0.1964,-0.1961,0,0,0,0,0,0,0,0,0,0,0,0,0,-0.2154,-0.2209,-0.2086,-0.208,-0.2079,-0.2023,-0.2022,-0.2021,-0.2027,-0.2028,-0.203,-0.2031,-0.1968,-0.1965,-0.1961,-0.1908,0,0,-0.1949,-0.1947,0,0,0,0,0,0,0,0,-0.2158,-0.215,-0.2082,-0.208,-0.2079,-0.2034,-0.2044,-0.1983,-0.2026,-0.2046,-0.203,-0.2032,-0.1988,-0.1983,-0.1968,-0.1905,-0.1902,-0.1949,-0.1946,-0.1945,-0.1943,0,0,0,0,0,0,0,-0.2162,-0.2153,-0.2061,-0.2081,-0.2079,-0.2081,-0.2074,-0.2032,-0.201,-0.2045,-0.2045,-0.2037,-0.1988,-0.1971,-0.1966,-0.1901,-0.1949,-0.1945,-0.1943,-0.1941,-0.1791,-0.1789,0,0,0,0,0,0,-0.2167,-0.2156,-0.2063,-0.2059,-0.2123,-0.2077,-0.207,-0.2047,-0.201,-0.2006,-0.2036,-0.2038,-0.1977,-0.1971,-0.1964,-0.1898,-0.1945,-0.1941,-0.1939,-0.1793,-0.1791,-0.1789,0,0,0,0,0,0,-0.217,-0.2159,-0.2066,-0.2108,-0.2096,-0.2073,-0.2048,-0.2045,-0.2029,-0.2004,-0.2,-0.2024,-0.1978,-0.1969,-0.1921,-0.1896,-0.1939,-0.1936,-0.1795,-0.1792,-0.179,-0.1767,0,0,0,0,0,0,-0.2173,-0.216,-0.2139,-0.2107,-0.2094,-0.2024,-0.2047,-0.2043,-0.2022,-0.2024,-0.1991,-0.1987,-0.1979,-0.1927,-0.1918,-0.1892,-0.1933,-0.1797,-0.1793,-0.179,-0.177,-0.1764,-0.1759,0,0,0,0,0,-0.2178,-0.2136,-0.2138,-0.2127,-0.2068,-0.2023,-0.2015,-0.2006,-0.202,-0.1999,-0.1983,-0.1988,-0.1901,-0.1922,-0.1912,-0.1884,-0.1798,-0.1794,-0.1791,-0.1773,-0.1766,-0.176,0,0,0,0,0,0,-0.2167,-0.2132,-0.2134,-0.2081,-0.2054,-0.2024,-0.1997,-0.1999,-0.1968,-0.1971,-0.1961,-0.1954,-0.1905,-0.189,-0.1914,-0.183,-0.1852,-0.1845,-0.1841,-0.1834,-0.1829,-0.1833,-0.1929,0,0,0,0,0,-0.2158,-0.2124,-0.2096,-0.2052,-0.2038,-0.202,-0.2,-0.1995,-0.1968,-0.1957,-0.1937,-0.1911,-0.1877,-0.1856,-0.1824,-0.1769,-0.1761,-0.1745,-0.1739,-0.1735,-0.1729,-0.1697,-0.1689,-0.1776,-0.1776,-0.1777,0,0,-0.214,-0.2117,-0.2096,-0.2049,-0.2028,-0.1993,-0.2011,-0.1973,-0.1947,-0.1951,-0.1904,-0.1889,-0.1859,-0.1807,-0.1783,-0.1793,-0.1703,-0.173,-0.1727,-0.1723,-0.1693,-0.1684,-0.1677,-0.1774,-0.1774,-0.1775,0,0,-0.2089,-0.2068,-0.2028,-0.2006,-0.1974,-0.1962,-0.1953,-0.1921,-0.1911,-0.1863,-0.1865,-0.1835,-0.1778,-0.1755,-0.1737,-0.1676,-0.1679,-0.1666,-0.1637,-0.1606,-0.1599,-0.1593,-0.1569,-0.1561,-0.1661,-0.1661,-0.1661,0,-0.207,-0.2017,-0.2007,-0.1969,-0.1947,-0.1949,-0.1908,-0.1888,-0.1847,-0.1832,-0.1844,-0.1772,-0.1752,-0.1694,-0.1679,-0.1664,-0.1652,-0.1669,-0.1601,-0.1595,-0.1589,-0.1566,-0.1557,-0.1659,-0.1659,-0.1659,-0.166,0,-0.1995,-0.1957,-0.1929,-0.1888,-0.1864,-0.1824,-0.1809,-0.1786,-0.1783,-0.1769,-0.172,-0.1697,-0.1659,-0.1645,-0.1643,-0.1586,-0.1593,-0.1603,-0.1624,-0.1579,-0.1557,-0.1549,-0.1657,-0.1658,-0.1658,-0.1658,0,0,-0.1934,-0.1888,-0.1877,-0.1858,-0.1822,-0.1793,-0.1754,-0.1716,-0.1695,-0.1668,-0.1633,-0.1585,-0.1593,-0.1572,-0.1567,-0.154,-0.1491,-0.1553,-0.1552,-0.1541,-0.1426,-0.1417,-0.1407,-0.1494,-0.1492,-0.1491,-0.1427,0,-0.1877,-0.1806,-0.1796,-0.1733,-0.1698,-0.1699,-0.1664,-0.1638,-0.1625,-0.1593,-0.1579,-0.1544,-0.1559,-0.1546,-0.1519,-0.1503,-0.1468,-0.1508,-0.1461,-0.1459,-0.1466,-0.1396,-0.1387,-0.1328,-0.1419,-0.1418,-0.1417,0,-0.1801,-0.1769,-0.1702,-0.167,-0.1655,-0.1624,-0.1587,-0.1558,-0.1529,-0.1521,-0.1496,-0.1494,-0.1453,-0.1477,-0.1419,-0.1447,-0.1427,-0.1416,-0.1414,-0.1407,-0.1434,-0.1386,-0.1309,-0.13,-0.1404,-0.1405,-0.1406,0,-0.1761,-0.1702,-0.1654,-0.1637,-0.1599,-0.1577,-0.156,-0.1532,-0.1509,-0.1478,-0.1463,-0.1429,-0.1409,-0.1382,-0.137,-0.1389,-0.1313,-0.1336,-0.1304,-0.1304,-0.1286,-0.1287,-0.1204,-0.1277,-0.1278,-0.1278,-0.1278,0,-0.1698,-0.1656,-0.1635,-0.1605,-0.1558,-0.1547,-0.1502,-0.1486,-0.1461,-0.1428,-0.1428,-0.1397,-0.1384,-0.1351,-0.1342,-0.1295,-0.1287,-0.1279,-0.1276,-0.1277,-0.1278,-0.1263,-0.1266,-0.1275,-0.1276,-0.1276,-0.1277,0,-0.1645,-0.1629,-0.1576,-0.1543,-0.1534,-0.15,-0.1473,-0.1444,-0.1431,-0.1388,-0.1378,-0.1357,-0.1319,-0.1305,-0.1258,-0.1252,-0.1196,-0.1199,-0.1206,-0.1205,-0.1173,-0.1175,-0.1075,-0.106,-0.1145,-0.1145,-0.1144,0,-0.1604,-0.1572,-0.1535,-0.1512,-0.1494,-0.1458,-0.1434,-0.1423,-0.1399,-0.1362,-0.1337,-0.1298,-0.1266,-0.1204,-0.1185,-0.1149,-0.1149,-0.1117,-0.1144,-0.1145,-0.1146,-0.1147,-0.1143,-0.1111,-0.111,-0.1109,-0.1109,0,-0.1534,-0.1527,-0.1493,-0.1455,-0.1426,-0.1397,-0.1368,-0.1349,-0.1334,-0.1306,-0.1266,-0.1241,-0.1192,-0.1153,-0.1116,-0.1099,-0.11,-0.1101,-0.1091,-0.109,-0.1095,-0.109,-0.1189,-0.1103,-0.1103,-0.1104,-0.1104,-0.1104,-0.1484,-0.1455,-0.1424,-0.1385,-0.1362,-0.1334,-0.1305,-0.1287,-0.1253,-0.1211,-0.1207,-0.1163,-0.1134,-0.1084,-0.1065,-0.1031,-0.104,-0.1026,-0.1022,-0.1019,-0.1015,-0.1102,-0.1024,-0.1024,-0.1025,-0.1025,-0.1025,0,-0.1412,-0.1392,-0.1356,-0.1315,-0.1284,-0.1288,-0.1256,-0.123,-0.1191,-0.1163,-0.1131,-0.1084,-0.1046,-0.1024,-0.0986,-0.0962,-0.0962,-0.0952,-0.0953,-0.0948,-0.101,-0.1022,-0.0953,-0.0953,-0.0953,-0.0953,-0.0953,-0.0953,-0.1371,-0.132,-0.131,-0.1247,-0.1228,-0.1184,-0.1165,-0.1139,-0.1117,-0.1063,-0.1031,-0.1017,-0.0991,-0.095,-0.0915,-0.091,-0.0895,-0.0884,-0.0879,-0.0937,-0.0944,-0.0951,-0.0962,-0.0882,-0.0881,-0.082,-0.0819,-0.0819]},{"header":{"parameterUnit":"m.s-1","parameterCategory":1,"la1":30.2991,"la2":30.254,"lo1":-89.0895,"lo2":-89.0444,"dy":0.0017,"dx":0.0017,"nx":28,"ny":28,"refTime":"2025-11-07T03:00:00:Z","depth":0,"parameterNumber":3,"parameterNumberName":"V-component_of_WINDS"},"data":[0,0,0,0,0,0,0,0,0,0,0,0,0,0,0,0,0,0,0,0,0,0,0,0,0,0,0,0,0,0,0,0,0,0,0,0,0,0,0,0,0,0,0,0,0,0,0,0,0,0,0,0,0,0,0,0,0,0,2.5885,2.5885,0,2.5937,2.5937,2.5938,2.5931,2.593,2.5929,2.5929,2.5978,2.598,2.5982,0,0,0,0,0,0,0,0,0,0,0,0,0,2.5777,2.5779,2.5885,2.5885,2.5886,2.5937,2.5938,2.5938,2.5931,2.593,2.5929,2.5928,2.5978,2.598,2.5983,0,0,0,0,0,0,0,0,0,0,0,0,0,2.5826,2.5779,2.5885,2.5889,2.589,2.5937,2.5938,2.5938,2.5931,2.593,2.5929,2.5928,2.5977,2.598,2.5983,2.6028,0,0,2.5993,2.5994,0,0,0,0,0,0,0,0,2.5823,2.583,2.5887,2.5888,2.589,2.5926,2.5918,2.5968,2.5932,2.5915,2.5929,2.5927,2.5962,2.5966,2.5979,2.603,2.6032,2.5993,2.5995,2.5996,2.5997,0,0,0,0,0,0,0,2.5819,2.5827,2.5905,2.5888,2.589,2.5887,2.5893,2.5927,2.5945,2.5917,2.5916,2.5923,2.5962,2.5975,2.598,2.6033,2.5993,2.5996,2.5998,2.5999,2.6128,2.6129,0,0,0,0,0,0,2.5815,2.5824,2.5904,2.5907,2.5853,2.589,2.5896,2.5916,2.5945,2.5948,2.5924,2.5922,2.5971,2.5976,2.5981,2.6038,2.5996,2.5999,2.6001,2.6126,2.6128,2.6129,0,0,0,0,0,0,2.5813,2.5823,2.5901,2.5866,2.5876,2.5893,2.5915,2.5917,2.5931,2.595,2.5953,2.5935,2.597,2.5977,2.6017,2.604,2.6001,2.6003,2.6124,2.6127,2.6129,2.6151,0,0,0,0,0,0,2.581,2.5822,2.5839,2.5866,2.5877,2.5937,2.5916,2.5919,2.5937,2.5935,2.5961,2.5964,2.5969,2.6013,2.6021,2.6044,2.6006,2.6122,2.6125,2.6128,2.6149,2.6154,2.6159,0,0,0,0,0,2.5806,2.5842,2.584,2.585,2.59,2.5939,2.5945,2.5952,2.5939,2.5957,2.5969,2.5963,2.6036,2.6017,2.6026,2.605,2.6121,2.6124,2.6128,2.6146,2.6153,2.6159,0,0,0,0,0,0,2.5815,2.5846,2.5844,2.589,2.5912,2.5937,2.596,2.5958,2.5983,2.5981,2.5987,2.5993,2.6034,2.6046,2.6024,2.6096,2.6077,2.6082,2.6088,2.6094,2.6099,2.6096,2.6009,0,0,0,0,0,2.5823,2.5853,2.5877,2.5915,2.5927,2.5942,2.5958,2.5962,2.5985,2.5994,2.6009,2.603,2.6059,2.6077,2.6103,2.615,2.6156,2.6171,2.6176,2.618,2.6185,2.6213,2.6221,2.6141,2.6141,2.6141,0,0,2.5839,2.5859,2.5877,2.5918,2.5935,2.5966,2.5949,2.5981,2.6004,2.5998,2.6039,2.6051,2.6075,2.612,2.614,2.613,2.6209,2.6184,2.6188,2.619,2.6217,2.6225,2.6232,2.6143,2.6143,2.6142,0,0,2.5884,2.5901,2.5936,2.5955,2.5983,2.5993,2.6001,2.6028,2.6036,2.6077,2.6074,2.61,2.6148,2.6166,2.6182,2.6236,2.6232,2.6244,2.6271,2.6298,2.6305,2.631,2.6332,2.6339,2.6249,2.6249,2.6249,0,2.5899,2.5946,2.5954,2.5988,2.6007,2.6004,2.604,2.6057,2.6092,2.6105,2.6094,2.6155,2.6171,2.6221,2.6235,2.6247,2.6258,2.6242,2.6303,2.6309,2.6314,2.6335,2.6343,2.625,2.625,2.625,2.625,0,2.5965,2.5998,2.6022,2.6059,2.608,2.6114,2.6127,2.6148,2.615,2.6161,2.6204,2.6223,2.6255,2.6267,2.6268,2.6318,2.6312,2.6302,2.6282,2.6323,2.6343,2.6351,2.6252,2.6252,2.6251,2.6251,0,0,2.6016,2.6059,2.6068,2.6085,2.6117,2.6142,2.6176,2.6209,2.6228,2.6251,2.6282,2.6323,2.6315,2.6333,2.6336,2.636,2.6405,2.6348,2.6348,2.636,2.6464,2.6472,2.6481,2.6402,2.6404,2.6405,2.6463,0,2.6066,2.6129,2.6139,2.6194,2.6226,2.6225,2.6256,2.6278,2.629,2.6317,2.6329,2.636,2.6346,2.6357,2.6381,2.6395,2.6426,2.639,2.6431,2.6432,2.6427,2.6491,2.65,2.6554,2.647,2.6471,2.6472,0,2.6132,2.6161,2.622,2.625,2.6264,2.6291,2.6324,2.635,2.6376,2.6383,2.6404,2.6405,2.6441,2.642,2.6471,2.6446,2.6463,2.6473,2.6475,2.648,2.6456,2.65,2.657,2.6579,2.6484,2.6483,2.6482,0,2.6166,2.622,2.6263,2.6278,2.6313,2.6333,2.6348,2.6373,2.6393,2.642,2.6434,2.6464,2.6482,2.6506,2.6515,2.6498,2.6567,2.6545,2.6574,2.6574,2.659,2.6589,2.6666,2.6597,2.6597,2.6597,2.6597,0,2.6222,2.6259,2.628,2.6307,2.6349,2.6359,2.6399,2.6414,2.6436,2.6466,2.6466,2.6493,2.6504,2.6533,2.6541,2.6583,2.659,2.6597,2.6599,2.6599,2.6598,2.6611,2.6608,2.6599,2.6599,2.6598,2.6598,0,2.6268,2.6283,2.6331,2.6361,2.637,2.64,2.6425,2.6451,2.6463,2.6501,2.651,2.6529,2.6564,2.6576,2.6617,2.6623,2.6673,2.667,2.6665,2.6666,2.6695,2.6693,2.6785,2.6798,2.6719,2.672,2.672,0,2.6303,2.6332,2.6367,2.6388,2.6404,2.6437,2.6459,2.647,2.6492,2.6525,2.6548,2.6583,2.6612,2.6667,2.6684,2.6717,2.6716,2.6746,2.6721,2.6721,2.672,2.6719,2.6723,2.6751,2.6752,2.6753,2.6753,0,2.6365,2.6372,2.6403,2.6439,2.6465,2.6492,2.6519,2.6535,2.655,2.6575,2.6612,2.6635,2.6679,2.6714,2.6748,2.6763,2.6762,2.6761,2.677,2.6771,2.6767,2.6772,2.668,2.6759,2.6759,2.6758,2.6758,2.6758,2.6408,2.6435,2.6465,2.6501,2.6522,2.6548,2.6575,2.6592,2.6623,2.6661,2.6665,2.6705,2.6732,2.6778,2.6795,2.6826,2.6818,2.683,2.6833,2.6837,2.6841,2.6761,2.6832,2.6832,2.6831,2.6831,2.6831,0,2.6472,2.6492,2.6525,2.6564,2.6592,2.6589,2.6619,2.6643,2.6679,2.6705,2.6734,2.6778,2.6813,2.6833,2.6868,2.689,2.689,2.6899,2.6898,2.6902,2.6845,2.6835,2.6898,2.6898,2.6898,2.6898,2.6898,2.6898,2.6509,2.6556,2.6566,2.6624,2.6643,2.6684,2.6702,2.6725,2.6747,2.6796,2.6826,2.6839,2.6863,2.6901,2.6933,2.6938,2.6952,2.6962,2.6967,2.6913,2.6906,2.6899,2.689,2.6964,2.6964,2.7022,2.7023,2.7023]}]]